2428 visiteurs
Prévisions de votre ville :
Vigilance : 42 départements 6 départements Mise à jour le 23/10/2019 à 18:11 - Voir la carte

Paris Roissy CDG (95380) le 23/10/2019 à 20:30 Choisir station

14°C 88 % NNE Vit. moyenne 7 kmh/h

Relevés météo quotidiens pour la station de :

UTC
S: Synop
M: Metar
Loc T°C
(°C)
Td
(°C)
HR
(%)
Vis
(km)
Néb
(octa)
Vent
(km/h)
Pression
(mb)
Précipitations
(mm)
Temps
              MOY
10 min
DIR RAF 1h MESURE VAR SUR 3h    
S 00 h 02h 28.3 15.2 45 - 17 30 1011.6 +0.2/3h 0.0/6h - 0.0/3h -
S 01 h 03h 27.7 16.0 49 - 15 30 1011.2 -0.9/3h 0.0/1h -
S 02 h 04h 27.4 15.7 49 - 7 13 1011.8 -0.4/3h 0.0/1h -
S 03 h 05h 26.3 16.2 54 - 4 22 1011.7 0.0/3h 0.0/3h -
S 04 h 06h 26.5 18.4 61 - 9 15 1012.0 +0.7/3h 0.0/1h -
S 05 h 07h 26.0 17.4 59 - 7 13 1011.2 -0.6/3h 0.0/1h -
S 06 h 08h 25.8 16.6 57 - 19 35 1011.7 0.0/3h 0.0/12h - 0.0/3h - 0.0/24h -
S 07 h 09h 28.0 16.6 50 - 2 17 1012.2 +0.3/3h 0.0/1h -
S 08 h 10h 30.0 16.4 44 - 13 26 1012.7 +1.6/3h 0.0/1h -
S 09 h 11h 30.2 18.9 51 20 6/8 11 24 1012.6 +1.0/3h 0.0/3h
S 10 h 12h 30.5 19.5 52 - 6 22 1012.8 +0.6/3h 0.0/1h -
S 11 h 13h 30.1 19.2 52 - 7 17 1013.1 +0.4/3h 0.0/1h -
S 12 h 14h 28.8 20.5 61 20 6/8 15 20 1012.4 -0.2/3h 0.0/6h - 0.0/3h
S 13 h 15h 28.7 22.0 67 - 9 9 1012.3 -0.5/3h 0.0/1h -
S 14 h 16h 27.5 20.3 65 - 17 24 1011.9 -1.2/3h 0.0/1h -
S 15 h 17h 27.1 21.6 72 - 30 41 1011.3 -1.1/3h 0.0/3h -
S 16 h 18h 27.2 19.8 64 - 20 43 1011.4 -0.9/3h 0.0/1h -
S 17 h 19h 26.2 21.2 74 - 24 33 1008.8 -3.1/3h 0.0/1h -
S 18 h 20h 27.2 20.3 66 - 4 43 1009.6 -1.7/3h 0.0/12h - 0.0/3h -
S 19 h 21h 26.6 20.9 71 - 7 19 1009.1 -2.3/3h 0.0/1h -
S 20 h 22h 25.7 20.0 71 - 7 19 1009.8 +0.9/3h 0.0/1h -
S 21 h 23h 25.7 19.1 67 - 11 20 1010.1 +0.4/3h 0.0/3h -
S 22 h 00h 25.3 17.5 62 - 9 20 1010.0 +0.8/3h 0.0/1h -
S 23 h 01h 25.9 17.5 60 - 15 30 1011.0 +1.2/3h 0.0/1h -
evolution des temperatures
cumul des precipitations
vent moyen et rafales
pression atmospherique

Un tiret (-) signifie que les données ne sont pas disponibles.

Passez la souris sur les pictos temps pour avoir plus de précisions. Passez les flèches sur l'icône de la direction du vent pour voir la direction précise en degrés.

Les données de l'heure en cours sont disponibles à partir de H+15 minutes.


S signifie station Synop, plus complète qu'une station Metar (M). Il y a +1h de différence entre l'heure UTC et l'heure légale en hiver et +2h en été.

Td est la mesure du point de rosée.

HR est l'humidité relative/p>

Vis est la visibilité

Néb est la nébulosité du ciel (couverture nuageuse) exprimée en octas (de 0/8 à 8/8).

Vent moy 10 min donne le vent moyen sur les 10 minutes qui précèdent le relevé.

Vent raf 1h donne la rafale maximale mesurée dans l'heure qui précède le relevé.


Les données les plus anciennes remontent à avril 2014.

Les données présentées sur cette page proviennent des stations météo officielles. Les relevés sont effectués aux normes en vigueur (anémomètre à 10m de haut, thermomètre sous abri normalisé à 2m du sol...)

Météo 60 décline toute responsabilité en cas d'absence de données, d'erreurs, de mauvaise utilisation ou interprétation et n'est pas habilité à fournir des certificats intempéries.